This demonstration page uses our WeatherBlox Daily Observations layout. Learn more.

Left ArrowRight Arrow

Hourly Observations for October 25, 2020

Temp ( °F °C ) Dew Point ( °F °C ) Humidity (%) Winds ( mph kmh ) Pressure ( in mb ) Visibility ( mi km ) Precip ( " mm )
12:02 am 00:02 Cloudy 31 -0.6 25 -3.9 79 79 ENE 12 19 30.27 1025 10 16 0.00 0.00
12:53 am 00:53 Cloudy 31 -0.6 24 -4.4 76 76 ENE 12 19 30.24 1024 10 16 0.00 0.00
1:53 am 01:53 Cloudy 30 -1.1 26 -3.3 85 85 NE 14 22 30.24 1024 8 13 0.00 0.00
2:11 am 02:11 Cloudy 30 -1.1 26 -3.3 85 85 NE 13 20 30.28 1026 7 11 0.00 0.00
2:41 am 02:41 Cloudy 29 -1.7 23 -5 78 78 NE 10 17 30.29 1026 10 16 0.00 0.00
2:53 am 02:53 Cloudy 29 -1.7 21 -6.1 72 72 NE 13 20 30.24 1024 10 16 0.00 0.00
3:53 am 03:53 Cloudy 29 -1.7 21 -6.1 72 72 NE 13 20 30.24 1024 10 16 0.00 0.00
4:27 am 04:27 Cloudy 29 -1.7 21 -6.1 72 72 NNE 12 19 30.30 1026 10 16 0.00 0.00
4:53 am 04:53 Cloudy 28 -2.2 23 -5 81 81 NNE 10 17 30.27 1025 10 16 0.00 0.00
5:15 am 05:15 Cloudy 28 -2.2 24 -4.4 85 85 NNE 9 15 30.31 1027 10 16 0.00 0.00
5:53 am 05:53 Cloudy 28 -2.2 24 -4.4 85 85 NNE 10 17 30.28 1025 10 16 0.00 0.00
6:53 am 06:53 Cloudy 28 -2.2 23 -5 81 81 NNE 10 17 30.29 1026 10 16 0.00 0.00
7:53 am 07:53 Cloudy 27 -2.8 23 -5 85 85 NNE 15 24 30.29 1026 10 16 0.00 0.00
8:53 am 08:53 Cloudy 26 -3.3 22 -5.6 84 84 N 17 28 30.32 1027 8 13 0.00 0.00
9:53 am 09:53 Cloudy with Mist and Fog 26 -3.3 22 -5.6 84 84 N 15 24 30.36 1028 5 8 0.00 0.00
10:43 am 10:43 Cloudy with Light Freezing Rain 26 -3.3 23 -5 88 88 NNE 18 30 30.39 1029 3 5 0.00 0.00
10:53 am 10:53 Cloudy with Light Freezing Rain 26 -3.3 23 -5 88 88 N 15 24 30.35 1028 3 5 0.00 0.00
11:04 am 11:04 Cloudy with Mist and Fog 27 -3 23 -5 86 86 N 17 28 30.40 1029 4 6 0.00 0.00
11:27 am 11:27 Cloudy with Mist and Fog 27 -2.8 23 -5 85 85 NNE 17 28 30.39 1029 6 10 0.00 0.00
11:53 am 11:53 Cloudy 27 -2.8 22 -5.6 81 81 N 18 30 30.36 1028 10 16 0.00 0.00
12:44 pm 12:44 Cloudy 27 -2.8 21 -6.1 78 78 N 17 28 30.41 1030 10 16 0.00 0.00
12:53 pm 12:53 Cloudy 27 -2.8 20 -6.7 75 75 N 18 30 30.37 1028 10 16 0.00 0.00
1:53 pm 13:53 Cloudy 28 -2.2 19 -7.2 69 69 N 17 28 30.35 1028 10 16 0.00 0.00
2:53 pm 14:53 Cloudy 28 -2.2 18 -7.8 66 66 NNE 22 35 30.33 1027 10 16 0.00 0.00
3:53 pm 15:53 Cloudy 28 -2.2 18 -7.8 66 66 NNE 20 31 30.33 1027 10 16 0.00 0.00
4:53 pm 16:53 Cloudy 27 -2.8 17 -8.3 66 66 N 18 30 30.35 1028 10 16 0.00 0.00
5:53 pm 17:53 Cloudy 26 -3.3 18 -7.8 71 71 NNE 17 28 30.37 1029 10 16 0.00 0.00
6:32 pm 18:32 Mostly Cloudy 25 -3.9 19 -7.2 78 78 NNE 20 31 30.44 1031 10 16 0.00 0.00
6:43 pm 18:43 Cloudy 25 -3.9 19 -7.2 78 78 NNE 20 31 30.44 1031 10 16 0.00 0.00
6:53 pm 18:53 Cloudy 25 -3.9 18 -7.8 75 75 NNE 18 30 30.40 1029 10 16 0.00 0.00
7:53 pm 19:53 Cloudy 25 -3.9 18 -7.8 75 75 N 17 28 30.41 1030 10 16 0.00 0.00
8:10 pm 20:10 Cloudy 25 -4 18 -8 74 74 N 17 28 30.47 1032 10 16 0.00 0.00
8:53 pm 20:53 Cloudy with Light Snow 24 -4.4 19 -7.2 81 81 N 18 30 30.45 1031 2 3 0.00 0.00
9:02 pm 21:02 Cloudy with Light Snow 24 -4.4 19 -7.2 81 81 N 17 28 30.49 1033 2 2 0.00 0.00
9:24 pm 21:24 Cloudy with Light Snow 24 -4.4 19 -7.2 81 81 N 15 24 30.49 1033 3 5 0.00 0.00
9:53 pm 21:53 Windy with Snow Likely 23 -5 18 -7.8 81 81 NNE 21 33 30.45 1031 6 10 0.00 0.00
10:11 pm 22:11 Windy with Snow Likely 22 -5.6 17 -8.3 82 82 NNE 21 33 30.50 1033 5 8 0.00 0.00
10:40 pm 22:40 Windy with Snow Likely 22 -5.6 16 -8.9 78 78 NNE 23 37 30.52 1034 3 5 0.00 0.00
10:53 pm 22:53 Windy with Snow Likely 21 -6.1 17 -8.3 85 85 NNE 20 31 30.47 1032 3 4 0.00 0.00
11:03 pm 23:03 Cloudy with Light Snow 21 -6 18 -8 86 86 NNE 17 28 30.54 1034 3 5 0.00 0.00
11:16 pm 23:16 Cloudy with Light Snow 21 -6.1 17 -8.3 85 85 NNE 18 30 30.55 1034 3 5 0.00 0.00
11:28 pm 23:28 Cloudy with Light Snow 21 -6.1 16 -8.9 81 81 NNE 16 26 30.56 1035 4 6 0.00 0.00
11:53 pm 23:53 Cloudy with Light Snow 21 -6.1 16 -8.9 81 81 NNE 17 28 30.50 1033 2 3 0.00 0.00
11:56 pm 23:56 Cloudy with Light Snow 21 -6 16 -9 80 80 N 14 22 30.57 1035 2 3 0.00 0.00

Powered by AerisWeather